Lampasas, TX

10:21 PM CST on February 25, 2018 (GMT -0600)
Lampasas

Weather History for KLZZ - July, 2013

Change the Weather History Date:

Saturday, July 13, 2013

  Actual Average (KGRK) Record (KGRK)
Temperature  
Mean Temperature 88 °F -  
Max Temperature 102 °F 93 °F 104 °F (2000)
Min Temperature 76 °F 72 °F 69 °F (2002)
Cooling Degree Days 23    
Growing Degree Days 38 (Base 50)    
Moisture  
Dew Point 61 °F    
Average Humidity 42    
Maximum Humidity 71    
Minimum Humidity 22    
Precipitation  
Precipitation 0.00 in - - ()
Sea Level Pressure  
Sea Level Pressure 29.95 in    
Wind  
Wind Speed 2 mph (SE)    
Max Wind Speed 12 mph    
Max Gust Speed -    
Visibility 10 miles    
Events      
Averages and records for this station are not official NWS values.
T = Trace of Precipitation, MM = Missing Value Source: NWS Daily Summary

Daily Weather History Graph

Daily Weather History Graph

Search for Another Location

Airport or City:

Trip Planner

Search our weather history database for the weather conditions in past years. The results will help you decide how hot, cold, wet, or windy it might be!

Date:

Astronomy

Jul. 13, 2013 Rise Set
Actual Time 6:38 AM CDT 8:38 PM CDT
Civil Twilight 6:11 AM CDT 9:05 PM CDT
Nautical Twilight 5:37 AM CDT 9:38 PM CDT
Astronomical Twilight 5:02 AM CDT 10:14 PM CDT
Moon 11:32 AM CDT (7/13) 11:45 PM CDT (7/13)
Length of Visible Light 14h 54m
Length of Day
13h 59m
Waxing Crescent, 26% of the Moon is Illuminated
Jul 13
Waxing Crescent
Jul 15
First Quarter
Jul 22
Full
Jul 29
Last Quarter
Aug 6
New

Hourly Weather History & Observations

Time (CDT) Temp. Heat Index Dew Point Humidity Pressure Visibility Wind Dir Wind Speed Gust Speed Precip Events Conditions
12:15 AM 83.8 °F 84.1 °F 61.2 °F 46% 29.94 in 10.0 mi Calm Calm - N/A   Clear
12:35 AM 82.0 °F 82.7 °F 61.3 °F 49% 29.95 in 10.0 mi SSE 3.5 mph - N/A   Clear
12:55 AM 83.3 °F 83.9 °F 61.7 °F 48% 29.95 in 10.0 mi Calm Calm - N/A   Clear
1:15 AM 82.2 °F 83.0 °F 62.1 °F 50% 29.95 in 10.0 mi Calm Calm - N/A   Clear
1:35 AM 81.9 °F 82.9 °F 62.6 °F 52% 29.95 in 10.0 mi Calm Calm - N/A   Clear
1:55 AM 81.9 °F 82.9 °F 62.6 °F 52% 29.95 in 10.0 mi Calm Calm - N/A   Clear
2:15 AM 80.6 °F 81.9 °F 63.3 °F 55% 29.96 in 10.0 mi Calm Calm - N/A   Clear
2:35 AM 80.6 °F 82.2 °F 64.2 °F 57% 29.95 in 10.0 mi Calm Calm - N/A   Clear
2:55 AM 80.6 °F 82.5 °F 65.5 °F 60% 29.96 in 10.0 mi Calm Calm - N/A   Clear
3:15 AM 80.6 °F 82.7 °F 65.8 °F 61% 29.96 in 10.0 mi Calm Calm - N/A   Clear
3:35 AM 78.4 °F - 65.3 °F 64% 29.96 in 10.0 mi Calm Calm - N/A   Clear
3:55 AM 78.1 °F - 66.0 °F 66% 29.95 in 10.0 mi Calm Calm - N/A   Clear
4:15 AM 78.1 °F - 65.5 °F 65% 29.95 in 10.0 mi SW 3.5 mph - N/A   Clear
4:35 AM 78.1 °F - 65.8 °F 66% 29.95 in 10.0 mi WSW 4.6 mph - N/A   Clear
4:55 AM 80.2 °F 82.6 °F 66.9 °F 64% 29.95 in 10.0 mi WSW 3.5 mph - N/A   Clear
5:15 AM 80.6 °F 82.9 °F 67.1 °F 63% 29.96 in 10.0 mi WSW 3.5 mph - N/A   Clear
5:35 AM 79.0 °F - 66.0 °F 64% 29.96 in 10.0 mi WSW 4.6 mph - N/A   Clear
5:55 AM 78.3 °F - 66.0 °F 66% 29.96 in 10.0 mi SW 3.5 mph - N/A   Clear
6:15 AM 78.1 °F - 66.6 °F 68% 29.97 in 10.0 mi Calm Calm - N/A   Clear
6:35 AM 78.1 °F - 67.3 °F 69% 29.97 in 10.0 mi Calm Calm - N/A   Clear
6:55 AM 76.5 °F - 66.6 °F 71% 29.98 in 10.0 mi Calm Calm - N/A   Clear
7:15 AM 77.2 °F - 66.6 °F 70% 29.99 in 10.0 mi Calm Calm - N/A   Clear
7:35 AM 78.1 °F - 66.7 °F 68% 29.99 in 10.0 mi Calm Calm - N/A   Clear
7:55 AM 80.6 °F 83.1 °F 67.3 °F 64% 30.00 in 10.0 mi Calm Calm - N/A   Clear
8:15 AM 81.9 °F 83.7 °F 65.3 °F 57% 30.00 in 10.0 mi SW 3.5 mph - N/A   Clear
8:35 AM 83.5 °F 84.7 °F 63.5 °F 51% 30.01 in 10.0 mi WSW 4.6 mph - N/A   Clear
8:55 AM 84.9 °F 85.6 °F 62.6 °F 47% 30.01 in 10.0 mi West 3.5 mph - N/A   Clear
9:15 AM 88.2 °F 89.3 °F 63.9 °F 44% 30.01 in 10.0 mi West 3.5 mph - N/A   Clear
9:35 AM 90.7 °F 92.4 °F 64.6 °F 42% 30.01 in 10.0 mi SW 3.5 mph - N/A   Clear
9:55 AM 90.7 °F 92.1 °F 64.0 °F 41% 30.01 in 10.0 mi Calm Calm - N/A   Clear
10:15 AM 90.9 °F 91.6 °F 62.8 °F 39% 30.01 in 10.0 mi SE 4.6 mph - N/A   Clear
10:35 AM 91.6 °F 92.3 °F 62.8 °F 38% 30.01 in 10.0 mi SW 3.5 mph - N/A   Clear
10:55 AM 93.2 °F 94.5 °F 63.5 °F 37% 30.00 in 10.0 mi East 3.5 mph - N/A   Clear
11:15 AM 95.9 °F 98.5 °F 65.3 °F 36% 30.00 in 10.0 mi SE 6.9 mph - N/A   Clear
11:35 AM 95.9 °F 97.5 °F 63.5 °F 34% 30.00 in 10.0 mi South 4.6 mph - N/A   Clear
11:55 AM 93.2 °F 94.1 °F 62.4 °F 36% 30.00 in 10.0 mi South 5.8 mph - N/A   Mostly Cloudy
12:15 PM 95.9 °F 97.0 °F 62.2 °F 33% 29.99 in 10.0 mi West 4.6 mph - N/A   Mostly Cloudy
12:35 PM 96.1 °F 96.9 °F 61.5 °F 32% 29.99 in 10.0 mi ENE 3.5 mph - N/A   Scattered Clouds
12:55 PM 98.1 °F 98.6 °F 60.4 °F 29% 29.98 in 10.0 mi SE 5.8 mph - N/A   Scattered Clouds
1:15 PM 98.2 °F 98.4 °F 59.5 °F 28% 29.97 in 10.0 mi ESE 9.2 mph - N/A   Clear
1:35 PM 98.2 °F 98.4 °F 59.7 °F 28% 29.97 in 10.0 mi NNE 4.6 mph - N/A   Clear
1:55 PM 98.8 °F 99.2 °F 59.9 °F 28% 29.96 in 10.0 mi East 4.6 mph - N/A   Clear
2:15 PM 95.9 °F 95.3 °F 58.6 °F 29% 29.95 in 10.0 mi Calm Calm - N/A   Mostly Cloudy
2:35 PM 98.2 °F 97.5 °F 58.3 °F 26% 29.94 in 10.0 mi South 6.9 mph - N/A   Mostly Cloudy
2:55 PM 98.2 °F 97.5 °F 57.6 °F 26% 29.94 in 10.0 mi SSE 4.6 mph - N/A   Mostly Cloudy
3:15 PM 98.2 °F 97.5 °F 57.6 °F 26% 29.93 in 10.0 mi North 3.5 mph - N/A   Scattered Clouds
3:35 PM 98.4 °F 97.3 °F 56.7 °F 25% 29.92 in 10.0 mi SE 5.8 mph - N/A   Scattered Clouds
3:55 PM 100.8 °F 99.8 °F 56.8 °F 23% 29.92 in 10.0 mi East 11.5 mph - N/A   Clear
4:15 PM 99.3 °F 98.2 °F 56.5 °F 24% 29.91 in 10.0 mi ESE 5.8 mph - N/A   Clear
4:35 PM 100.8 °F 99.8 °F 56.7 °F 23% 29.91 in 10.0 mi Calm Calm - N/A   Clear
4:55 PM 98.2 °F 96.7 °F 55.8 °F 24% 29.90 in 10.0 mi SE 6.9 mph - N/A   Scattered Clouds
5:15 PM 100.8 °F 99.8 °F 56.1 °F 23% 29.89 in 10.0 mi Calm Calm - N/A   Scattered Clouds
5:35 PM 100.8 °F 99.3 °F 55.2 °F 22% 29.89 in 10.0 mi ENE 5.8 mph - N/A   Clear
5:55 PM 100.8 °F 99.3 °F 55.9 °F 22% 29.88 in 10.0 mi ESE 9.2 mph - N/A   Scattered Clouds
6:15 PM 99.0 °F 97.7 °F 55.9 °F 24% 29.88 in 10.0 mi SE 10.4 mph - N/A   Mostly Cloudy
6:35 PM 98.2 °F 96.7 °F 56.1 °F 24% 29.88 in 10.0 mi ESE 9.2 mph - N/A   Mostly Cloudy
6:55 PM 98.2 °F 97.5 °F 57.7 °F 26% 29.88 in 10.0 mi East 10.4 mph - N/A   Scattered Clouds
7:15 PM 97.0 °F 96.1 °F 57.4 °F 27% 29.87 in 10.0 mi East 5.8 mph - N/A   Clear
7:35 PM 95.9 °F 94.6 °F 56.7 °F 27% 29.87 in 10.0 mi ESE 5.8 mph - N/A   Clear
7:55 PM 95.9 °F 94.6 °F 56.5 °F 27% 29.87 in 10.0 mi ESE 5.8 mph - N/A   Clear
8:15 PM 95.9 °F 94.6 °F 56.7 °F 27% 29.89 in 10.0 mi SE 3.5 mph - N/A   Clear
8:35 PM 95.9 °F 94.9 °F 58.1 °F 28% 29.89 in 10.0 mi Calm Calm - N/A   Clear
8:55 PM 93.2 °F 91.9 °F 57.0 °F 30% 29.88 in 10.0 mi Calm Calm - N/A   Clear
9:15 PM 90.7 °F 89.2 °F 57.2 °F 32% 29.89 in 10.0 mi Calm Calm - N/A   Clear
9:35 PM 90.7 °F 89.2 °F 57.4 °F 32% 29.89 in 10.0 mi ENE 3.5 mph - N/A   Clear
9:55 PM 90.7 °F 89.8 °F 58.5 °F 34% 29.90 in 10.0 mi Calm Calm - N/A   Clear
10:15 PM 90.7 °F 90.4 °F 60.1 °F 36% 29.91 in 10.0 mi Calm Calm - N/A   Clear
10:35 PM 90.7 °F 90.7 °F 60.8 °F 37% 29.91 in 10.0 mi Calm Calm - N/A   Clear
10:55 PM 88.2 °F 87.6 °F 59.9 °F 38% 29.92 in 10.0 mi ENE 4.6 mph - N/A   Clear
11:15 PM 90.7 °F 91.3 °F 62.2 °F 39% 29.92 in 10.0 mi East 6.9 mph - N/A   Clear
11:35 PM 90.7 °F 91.3 °F 62.2 °F 39% 29.93 in 10.0 mi East 6.9 mph - N/A   Clear
11:55 PM 90.7 °F 91.3 °F 62.6 °F 39% 29.93 in 10.0 mi East 9.2 mph - N/A   Clear